TimeEST,TemperatureF,Dew PointF,Humidity,Sea Level PressureIn,VisibilityMPH,Wind Direction,Wind SpeedMPH,Gust SpeedMPH,PrecipitationIn,Events,Conditions,WindDirDegrees,DateUTC
12:53 AM,23.0,1.9,40,30.13,10.0,WNW,6.9,-,N/A,,Clear,300,2013-01-03 05:53:00
1:53 AM,21.0,-2.9,35,30.13,10.0,Variable,5.8,19.6,N/A,,Clear,0,2013-01-03 06:53:00
2:53 AM,19.0,-0.9,42,30.14,10.0,NW,11.5,23.0,N/A,,Clear,320,2013-01-03 07:53:00
3:53 AM,16.0,-0.9,47,30.14,10.0,NW,10.4,-,N/A,,Clear,320,2013-01-03 08:53:00
4:53 AM,14.0,-2.9,47,30.15,10.0,NW,6.9,18.4,N/A,,Clear,320,2013-01-03 09:53:00
5:53 AM,12.9,-2.9,49,30.15,10.0,Variable,5.8,-,N/A,,Clear,0,2013-01-03 10:53:00
6:53 AM,12.0,-4.0,49,30.16,10.0,West,3.5,-,N/A,,Clear,280,2013-01-03 11:53:00
7:53 AM,10.9,-5.1,49,30.17,10.0,NW,4.6,-,N/A,,Clear,320,2013-01-03 12:53:00
8:53 AM,12.9,-5.1,45,30.17,10.0,NW,9.2,-,N/A,,Clear,320,2013-01-03 13:53:00
9:53 AM,15.1,-7.1,37,30.17,10.0,WNW,6.9,-,N/A,,Clear,300,2013-01-03 14:53:00
10:53 AM,18.0,-6.0,35,30.15,10.0,West,8.1,-,N/A,,Clear,280,2013-01-03 15:53:00
11:53 AM,21.0,-7.1,29,30.12,10.0,WNW,10.4,-,N/A,,Clear,300,2013-01-03 16:53:00
12:53 PM,24.1,-4.0,29,30.09,10.0,WNW,8.1,-,N/A,,Clear,290,2013-01-03 17:53:00
1:53 PM,26.1,1.9,35,30.07,10.0,WNW,8.1,-,N/A,,Clear,290,2013-01-03 18:53:00
2:53 PM,27.0,8.1,45,30.07,10.0,NW,8.1,-,N/A,,Clear,320,2013-01-03 19:53:00
3:53 PM,27.0,8.1,45,30.07,10.0,NNW,3.5,-,N/A,,Clear,330,2013-01-03 20:53:00
4:53 PM,26.1,9.0,49,30.07,10.0,Calm,Calm,-,N/A,,Clear,0,2013-01-03 21:53:00
5:53 PM,24.1,10.0,55,30.08,10.0,Calm,Calm,-,N/A,,Clear,0,2013-01-03 22:53:00
6:53 PM,24.1,10.0,55,30.08,10.0,WSW,3.5,-,N/A,,Scattered Clouds,240,2013-01-03 23:53:00
7:53 PM,25.0,10.9,55,30.09,10.0,West,5.8,-,N/A,,Overcast,280,2013-01-04 00:53:00
8:53 PM,25.0,10.9,55,30.07,10.0,Calm,Calm,-,N/A,,Overcast,0,2013-01-04 01:53:00
9:53 PM,24.1,10.9,57,30.07,10.0,Calm,Calm,-,N/A,,Mostly Cloudy,0,2013-01-04 02:53:00
10:53 PM,23.0,12.0,63,30.07,10.0,Calm,Calm,-,N/A,,Mostly Cloudy,0,2013-01-04 03:53:00
11:53 PM,27.0,15.1,61,30.04,10.0,West,4.6,-,N/A,,Partly Cloudy,270,2013-01-04 04:53:00